Location: Unspecified
(0.0000°N, 0.0000°E)
Time: 04:54:54
(UTC+00:00)

N. Korean satellite - Pass Details

Date: 05 May 2021
Orbit: 450 x 501 km, 97.2° (Epoch: 16 May)

Event Time Altitude Azimuth Distance (km) Brightness Sun altitude
Rises 05:18:25 0° 357° (N) 2,442 10.3 -9.2°
Reaches altitude 10° 05:20:32 10° 349° (NNW) 1,571 9.2 -8.7°
Maximum altitude 05:23:38 35° 281° (W) 736 7.0 -7.9°
Drops below altitude 10° 05:26:46 10° 213° (SSW) 1,580 8.7 -7.2°
Sets 05:28:55 0° 204° (SSW) 2,458 9.8 -6.7°
